Theta_e
318 317 317 317 317 316 315 314 314 313 313 312 311 310 310 309 309 308 308 307 307 307 306 306 306 305 305 305 305 305 305 304 305 305 304 305 303 299 295 293 294 294 294 294 294 295 295 295 296 298 300 302
317 317 316 316 316 315 314 314 314 313 312 311 310 310 309 309 308 307 307 307 307 306 305 305 305 304 304 304 304 304 304 304 304 303 304 302 299 295 294 293 293 293 293 293 294 294 294 294 294 296 297 299
317 316 315 315 315 314 314 314 313 312 311 310 310 309 308 307 306 307 307 306 306 306 305 304 304 304 303 303 303 303 303 303 303 303 302 299 294 293 293 292 292 292 292 292 292 292 293 293 293 294 295 296
316 315 314 314 314 313 314 313 312 312 311 310 309 308 307 306 305 306 306 306 305 304 303 303 303 304 303 303 303 302 302 302 302 302 299 294 292 292 291 291 291 291 291 291 291 291 291 292 292 293 293 294
315 314 313 314 313 313 313 312 311 311 310 308 308 307 306 305 304 305 305 305 304 303 302 301 302 303 303 303 302 302 301 301 300 297 293 290 290 290 290 290 290 290 290 290 290 290 290 290 291 291 292 293
314 314 313 313 313 312 312 311 310 309 308 307 306 306 305 304 303 303 303 303 303 301 300 300 300 302 302 302 302 301 301 300 297 292 290 290 289 289 289 289 289 289 289 289 289 289 289 289 290 290 290 291
314 313 312 312 312 311 310 310 308 307 307 306 305 305 304 304 303 302 302 302 301 300 299 298 298 300 301 301 301 300 299 297 294 291 290 289 289 289 288 288 288 289 289 289 289 289 289 289 289 289 289 290
314 312 312 311 310 309 308 308 306 305 305 305 304 303 303 303 302 301 300 300 300 299 298 296 296 298 298 298 298 297 295 293 291 290 289 288 288 288 288 288 288 288 288 288 288 288 288 288 288 288 288 289
313 312 311 310 310 308 307 306 305 305 304 303 303 302 302 302 301 300 299 299 298 298 296 295 295 295 295 295 295 293 291 290 290 289 288 288 288 288 288 288 288 288 288 288 288 288 288 288 288 288 288 288
313 311 310 310 309 308 307 306 305 305 304 303 302 301 301 300 299 297 297 296 296 296 295 293 294 294 294 293 292 291 290 289 289 288 288 288 288 288 288 287 287 287 287 288 287 288 288 287 288 287 287 288
313 311 310 309 308 308 307 306 305 304 303 302 301 300 299 297 296 296 295 295 294 294 293 293 293 292 292 291 290 290 289 289 289 288 288 287 287 287 287 287 287 287 287 287 287 287 287 287 287 287 287 287
313 311 310 309 308 307 306 305 305 304 302 301 300 299 297 296 295 295 295 294 294 293 292 292 292 291 291 290 290 290 289 289 288 288 287 287 287 287 287 287 287 287 287 287 287 287 287 287 287 287 287 287
312 311 310 309 308 307 306 305 305 304 302 301 299 297 296 296 296 295 295 294 293 293 292 292 291 291 290 290 290 290 289 289 288 288 287 287 287 287 287 287 287 287 287 286 286 286 286 286 286 286 286 286
312 311 310 309 308 307 306 305 305 303 302 300 299 297 296 296 296 295 295 294 293 293 292 292 291 291 290 289 290 289 289 289 288 287 287 287 286 286 286 286 286 286 286 286 286 286 286 286 286 286 286 286
312 311 311 309 308 307 306 305 304 303 302 300 299 297 297 296 295 295 295 294 294 293 292 292 291 291 290 289 289 289 289 289 288 287 286 286 286 286 286 286 286 286 286 286 286 286 286 286 286 286 285 285
312 312 311 309 308 307 306 305 304 303 302 300 299 297 297 296 295 295 294 294 294 293 292 292 292 291 290 290 289 289 289 288 287 286 286 286 285 285 285 285 285 285 285 285 285 285 286 286 285 285 285 285
312 312 311 310 308 307 306 305 304 302 302 300 299 297 296 296 296 295 294 294 293 293 292 292 292 291 290 290 289 289 289 288 287 286 286 285 285 285 285 285 285 285 285 285 285 285 285 285 285 285 285 285
311 311 311 310 309 307 306 305 304 302 302 300 299 297 297 296 296 295 294 294 293 293 292 292 292 291 291 290 289 289 289 288 288 287 286 285 285 285 285 285 284 284 284 284 284 284 284 284 285 285 284 284
310 311 310 310 309 308 306 305 304 302 301 300 299 297 297 296 296 295 295 294 293 293 293 292 292 292 291 290 290 289 289 288 288 287 286 285 285 285 284 284 284 284 284 284 284 284 284 284 284 284 284 284
310 310 310 310 309 308 307 305 304 303 302 300 299 297 297 297 296 296 295 294 294 293 293 293 292 292 291 290 290 289 289 289 288 287 286 285 285 284 284 284 284 284 284 283 283 283 283 283 283 284 283 284
309 309 309 309 309 308 307 305 304 303 302 300 299 298 297 297 296 296 295 295 294 294 294 293 293 292 291 291 290 290 289 289 288 287 286 285 284 284 284 284 284 284 283 283 283 283 283 283 283 283 283 283
309 308 307 307 308 307 306 304 303 302 301 300 299 298 298 297 297 296 296 295 295 294 294 293 293 292 292 291 290 290 289 289 288 287 286 285 284 284 283 284 284 283 283 283 283 282 282 282 282 282 283 283
308 307 305 304 304 303 302 302 301 300 299 299 299 298 298 298 297 296 296 295 295 294 294 293 292 292 292 291 291 290 289 288 288 287 286 285 284 284 283 283 283 283 283 283 282 282 282 282 282 282 282 282
306 304 303 302 301 300 299 299 299 298 298 299 299 299 298 298 297 297 296 295 295 294 294 293 293 292 291 291 290 290 289 289 289 288 288 286 285 284 283 283 283 282 282 282 282 281 281 281 281 281 282 282
304 303 302 300 300 299 298 297 297 297 297 298 299 299 298 297 298 297 296 295 295 294 294 293 292 292 292 291 290 290 290 290 290 289 288 287 285 284 283 283 283 282 282 281 281 281 281 281 281 281 281 282
305 304 304 302 301 300 298 297 297 297 298 299 299 299 298 298 297 296 296 295 295 295 294 293 293 292 292 291 291 290 290 289 289 288 288 287 285 284 283 283 283 282 282 281 281 282 282 282 282 281 281 281
305 305 305 304 303 301 300 298 298 299 300 300 298 298 298 297 297 296 295 295 295 295 294 294 294 293 292 291 291 290 290 289 288 288 287 287 286 285 283 282 282 282 282 282 281 281 283 284 283 283 283 282
305 305 304 304 303 301 300 299 298 297 297 297 296 295 296 295 295 295 295 295 295 295 295 294 294 293 292 292 291 291 290 290 289 289 288 287 287 285 283 282 282 282 282 282 282 282 283 282 283 285 285 283
304 304 303 302 301 299 298 297 296 295 294 294 294 294 295 295 295 295 295 295 295 295 295 294 294 293 292 292 291 291 290 290 290 290 289 288 287 286 285 284 283 282 281 282 282 283 283 283 283 285 284 283
303 303 302 301 300 298 297 296 296 296 295 294 295 296 297 297 296 296 296 295 295 294 294 294 294 293 292 292 291 291 291 290 290 289 289 289 287 287 287 286 283 282 282 282 281 282 283 284 285 285 283 284
302 302 301 300 300 299 298 298 298 297 297 296 296 296 297 298 297 296 295 295 294 294 294 294 293 293 292 292 291 291 290 290 289 289 289 289 288 288 287 285 283 283 283 281 280 281 282 283 284 284 284 284
Wind_Speed
25 24 23 23 22 21 21 20 19 20 19 19 18 17 17 16 15 15 14 12 12 11 10 10 10 10 9 10 10 11 11 10 11 10 11 11 11 10 8 8 9 10 10 11 12 12 13 13 14 14 14 15
26 26 24 23 22 22 22 21 20 21 20 19 18 18 18 17 17 16 14 13 12 12 11 11 10 10 9 10 10 10 10 10 10 9 10 9 9 8 7 7 7 8 9 10 10 11 11 12 12 12 12 14
27 27 25 24 24 23 22 21 21 21 20 19 19 19 19 19 18 16 15 15 14 14 14 13 12 10 10 9 10 10 9 9 9 9 9 8 7 7 6 6 6 7 7 8 9 9 10 10 11 11 11 13
28 28 26 26 25 24 23 23 22 21 21 21 21 20 20 19 19 18 17 17 16 15 15 15 14 11 10 10 9 9 9 9 9 9 7 5 5 5 5 5 5 6 6 7 7 8 9 9 9 10 11 12
28 28 27 27 26 25 25 24 23 23 23 23 22 21 20 20 20 20 20 19 17 15 14 14 14 12 11 10 9 9 9 9 8 6 4 4 3 3 3 4 4 5 5 6 6 7 7 7 8 9 10 11
28 29 28 27 28 27 26 26 25 25 24 23 21 21 20 20 20 19 19 19 17 15 13 14 15 14 11 11 10 9 9 8 7 6 4 3 3 2 2 3 4 4 5 5 5 6 6 6 6 8 8 9
29 29 29 29 29 28 27 26 26 25 23 22 20 20 20 20 20 19 18 18 16 14 14 14 15 16 14 13 12 10 9 8 6 4 3 3 2 2 2 3 3 4 4 5 5 5 5 5 6 7 7 8
30 30 30 30 29 28 27 26 26 24 22 20 20 20 20 21 20 19 19 18 17 15 14 14 15 16 15 14 13 10 8 6 4 2 2 2 2 2 2 2 3 3 4 4 5 5 5 5 5 6 6 7
31 31 31 31 30 29 28 27 26 24 21 20 20 20 21 21 21 20 20 19 18 17 15 14 14 15 14 13 11 9 7 5 4 3 3 3 3 3 2 2 3 3 3 4 4 4 5 5 5 6 6 7
32 32 32 32 31 30 30 28 26 24 22 21 21 21 22 22 21 21 20 19 19 18 16 15 14 14 13 12 11 10 8 6 5 5 4 4 4 3 3 3 3 3 3 3 4 4 4 5 5 6 6 7
34 33 33 33 33 32 31 29 26 25 23 23 22 22 22 22 21 20 20 19 18 18 17 16 15 14 14 13 12 10 8 7 6 6 5 5 5 5 4 4 3 3 3 3 3 4 4 5 5 5 6 7
36 35 35 35 34 33 32 30 27 26 25 24 24 23 22 21 20 19 18 18 18 18 17 16 16 16 15 14 13 11 9 8 7 7 7 7 6 6 6 5 5 4 4 4 4 4 4 5 5 6 6 7
38 37 37 36 35 34 33 31 28 27 26 25 24 24 23 21 20 19 18 17 17 17 17 17 17 17 17 15 13 12 10 9 8 8 8 8 8 7 7 6 6 6 5 5 5 5 5 5 6 6 6 7
40 38 38 38 37 36 34 32 30 28 27 26 25 25 23 22 21 19 18 17 17 18 18 18 18 18 18 16 15 13 11 10 9 9 9 9 9 9 8 8 7 7 7 6 6 6 6 6 6 6 7 7
41 40 39 38 38 37 35 34 31 30 28 27 27 26 24 23 22 21 19 18 18 18 18 18 19 19 19 17 15 13 12 11 10 10 10 9 10 10 10 9 9 8 8 7 7 7 7 7 7 7 7 8
42 41 40 39 39 39 37 35 33 31 30 29 28 27 26 25 24 22 21 20 19 18 18 18 19 19 19 18 16 14 13 11 11 11 11 11 11 11 11 10 10 10 9 9 9 8 8 8 8 8 8 8
42 42 41 41 40 40 38 37 35 33 32 31 30 29 28 26 25 24 23 21 20 19 19 18 19 20 19 19 17 15 14 12 12 12 12 12 12 12 12 12 11 11 11 11 10 10 10 9 9 9 9 9
42 43 42 42 41 41 40 38 37 35 34 33 32 31 29 28 26 25 24 23 22 21 20 19 19 20 20 19 18 16 15 14 13 13 13 13 13 13 13 12 12 12 11 11 11 11 11 10 10 10 10 10
42 43 44 43 42 42 41 40 39 37 36 35 34 33 31 30 28 27 26 25 24 23 22 21 20 20 20 19 19 18 16 15 14 14 13 14 14 14 14 13 13 12 12 12 12 12 11 11 11 11 11 11
43 43 44 43 43 43 42 41 41 39 38 37 36 35 33 32 30 29 28 27 26 24 23 22 21 20 20 20 20 19 18 17 16 15 15 15 15 15 15 15 14 13 13 13 12 12 12 12 12 12 12 12
43 43 43 43 43 43 43 43 43 41 40 39 38 37 36 34 32 31 30 29 28 26 25 24 22 21 21 21 20 20 19 18 17 16 16 16 16 16 15 15 15 14 14 13 13 13 12 12 12 12 13 13
44 43 41 42 43 43 44 44 44 43 43 42 40 39 37 35 34 34 33 32 30 28 27 26 24 23 22 22 22 22 21 20 19 18 17 18 17 17 16 15 15 15 14 13 13 13 13 13 12 12 13 14
43 41 39 38 39 39 40 42 42 42 43 43 42 40 39 38 37 37 36 34 32 31 30 28 27 25 24 24 24 24 23 22 21 20 19 19 18 18 17 16 15 14 14 13 13 13 13 13 13 13 13 15
39 37 36 35 35 35 37 39 40 40 41 42 42 42 41 41 40 39 38 36 35 34 32 31 29 28 27 27 26 26 26 25 24 23 22 21 20 19 19 18 17 16 15 14 13 13 14 14 14 14 15 16
39 37 35 34 36 36 35 37 38 39 41 42 43 43 42 42 41 41 40 39 37 36 34 33 32 31 30 29 29 29 28 26 25 24 23 21 21 20 20 20 19 18 16 12 11 11 13 15 16 16 16 17
40 40 40 38 38 36 34 36 38 40 43 44 44 44 44 44 43 43 42 41 39 37 36 35 34 34 33 33 32 30 29 27 26 25 24 23 22 21 21 21 20 20 17 12 10 7 6 10 14 16 18 20
39 39 41 40 38 37 36 37 39 41 43 45 45 45 45 45 45 44 43 42 41 39 38 38 37 37 36 35 33 32 31 30 29 28 27 26 25 23 22 21 21 21 20 16 11 5 2 3 5 9 15 20
40 38 38 38 36 36 37 35 35 37 38 40 41 42 43 44 45 44 43 43 42 41 41 40 40 39 38 37 35 34 33 33 32 31 30 29 28 26 24 23 23 23 23 22 15 6 2 0 0 4 6 12
39 37 35 34 31 29 30 29 28 31 31 33 36 39 42 44 45 45 44 44 44 43 43 42 42 41 40 39 37 36 36 35 34 33 32 31 31 30 28 26 25 24 25 26 24 14 5 2 2 3 2 3
39 37 34 33 32 28 27 26 27 30 31 32 37 40 43 44 45 45 46 45 45 45 44 44 43 43 42 41 40 39 38 37 36 35 34 33 33 33 31 29 26 25 26 27 28 25 16 9 4 2 4 3
39 38 35 36 37 35 33 31 31 33 33 34 37 39 42 44 44 45 46 46 46 45 45 44 44 44 44 43 42 40 39 39 38 37 36 35 35 34 33 32 28 27 28 27 28 31 28 21 12 6 6 4
Wind_Direction
160 161 163 163 164 166 166 164 163 159 156 156 153 151 151 150 152 151 150 149 148 145 141 137 129 124 121 119 118 116 113 110 110 109 106 106 107 110 108 109 110 111 114 116 118 120 121 122 124 126 126 121
163 162 164 165 165 166 168 166 163 160 157 157 155 155 155 158 158 152 151 151 150 147 144 142 135 131 127 123 121 119 117 114 115 113 108 109 113 117 115 111 111 112 115 117 118 120 121 122 124 127 129 123
167 166 166 167 168 168 168 166 163 162 160 158 158 161 165 168 162 155 156 154 150 149 151 150 140 135 133 130 128 123 121 120 120 114 112 121 124 123 126 121 117 116 116 118 119 120 122 122 123 126 127 123
170 170 170 171 172 170 169 169 166 164 163 163 166 171 175 173 165 162 166 163 163 165 169 161 144 138 139 137 133 127 125 126 125 122 126 144 137 127 131 129 128 126 124 122 121 123 122 123 124 124 125 125
173 173 173 173 174 172 173 172 169 170 172 173 175 180 181 179 174 174 177 177 180 183 182 168 150 144 143 142 140 135 129 127 135 147 171 186 165 146 136 131 131 131 134 133 129 128 125 125 127 125 124 125
176 176 175 175 176 176 177 176 176 180 182 183 183 186 187 186 185 185 187 188 193 191 184 177 162 149 143 144 144 139 130 138 162 181 201 210 193 179 154 140 132 132 138 141 140 137 131 132 133 130 128 127
181 179 177 178 180 181 181 181 185 188 188 189 189 190 191 191 192 194 194 195 197 195 186 184 175 161 155 156 155 153 147 163 191 198 212 218 199 190 170 155 139 138 141 143 147 143 140 142 140 135 134 132
184 183 182 184 184 185 186 188 191 193 192 193 194 194 195 195 195 197 197 198 199 199 196 192 188 179 177 176 173 177 176 190 213 213 226 222 203 198 180 167 150 144 146 146 150 149 147 147 146 144 140 136
188 187 186 187 188 190 191 193 194 195 195 196 198 198 198 197 197 198 198 200 202 204 205 202 196 192 192 191 189 197 207 218 231 233 226 221 211 205 192 184 166 154 154 152 153 152 150 150 148 149 144 141
193 191 191 191 192 194 194 196 197 197 198 199 201 200 199 198 197 199 199 202 205 207 209 206 201 198 198 198 200 206 213 224 231 230 224 220 214 209 207 200 187 175 168 161 159 157 153 152 148 149 147 144
195 195 195 196 196 197 197 199 200 201 201 202 203 202 201 200 199 199 200 203 206 209 209 207 205 203 202 202 206 210 215 223 227 224 220 216 212 211 211 207 204 193 187 176 168 166 159 156 151 151 149 146
196 197 198 199 199 200 201 202 204 205 204 205 204 204 203 203 204 203 203 205 206 209 208 208 208 206 205 206 209 213 216 220 223 221 215 213 211 210 210 208 208 201 198 190 178 176 168 163 158 155 155 151
197 199 200 201 202 203 204 206 208 209 207 206 206 205 206 207 208 207 206 207 207 209 209 209 209 207 208 209 212 215 217 219 219 217 211 210 209 208 209 207 205 203 201 196 189 185 178 172 165 162 162 160
199 200 201 203 205 207 207 209 210 210 209 209 209 208 208 209 210 209 208 208 208 209 210 210 210 209 209 211 214 217 219 219 217 215 211 208 207 206 206 205 204 202 201 200 198 193 188 183 175 171 169 167
200 202 204 206 207 209 210 211 211 210 210 211 211 211 210 210 210 210 210 210 209 209 210 212 212 212 212 214 216 217 217 217 215 212 210 207 206 206 205 204 203 201 202 202 202 200 197 192 186 181 178 176
202 204 206 208 209 211 212 212 212 211 212 213 213 212 211 211 210 210 211 211 211 210 211 213 214 214 215 217 217 217 217 216 214 211 208 206 204 204 203 203 202 200 201 202 204 204 202 199 195 192 188 185
203 206 208 210 212 213 213 213 213 213 214 214 214 213 212 212 211 211 212 212 212 212 213 215 215 216 217 218 219 218 217 215 215 213 211 209 206 205 204 204 202 201 200 201 204 204 205 204 202 200 197 196
204 207 209 211 212 213 214 215 215 215 216 216 215 214 213 213 213 213 213 212 213 213 214 216 216 217 217 217 218 219 218 218 219 218 217 214 211 209 207 207 205 204 204 204 204 204 207 207 206 206 203 202
206 208 210 212 213 214 215 216 217 217 217 217 216 215 215 215 215 215 214 214 215 215 215 216 217 218 217 217 218 219 219 220 221 221 221 219 215 211 209 210 209 208 208 208 209 208 208 209 209 210 209 208
207 210 212 214 215 216 216 217 218 219 219 218 217 216 216 216 216 216 217 216 216 217 217 218 219 219 218 217 218 219 220 220 222 222 221 221 220 217 213 211 212 212 212 212 213 212 212 213 214 214 213 213
208 210 213 215 216 217 218 218 219 219 220 219 217 218 218 217 218 218 219 218 218 219 220 221 221 220 219 219 220 221 221 221 222 222 222 221 220 220 219 217 216 215 216 216 217 217 218 218 219 220 218 216
210 211 212 215 217 218 218 218 219 219 219 218 219 219 219 220 220 220 220 219 219 220 221 223 223 222 220 220 221 221 221 221 221 222 223 223 221 220 221 221 221 221 221 222 223 223 225 226 225 225 223 222
211 211 211 213 215 216 216 216 217 217 217 218 219 219 220 221 221 222 222 220 220 221 221 221 222 223 221 220 221 221 220 219 219 220 221 222 223 221 221 224 224 224 224 225 228 229 231 233 234 233 230 227
209 209 209 211 212 213 215 215 216 217 218 220 221 221 221 222 223 223 223 222 221 221 222 222 223 223 222 221 221 221 220 220 221 222 223 223 223 221 221 222 222 222 223 224 229 233 236 238 238 238 237 234
206 206 207 209 211 214 214 215 216 218 219 221 223 223 223 223 224 224 223 223 222 222 223 223 224 224 223 222 222 224 225 225 224 223 224 224 223 223 223 222 222 220 217 217 225 234 240 243 243 243 241 240
208 209 210 211 214 215 216 216 217 219 222 223 224 225 224 224 225 225 224 224 224 224 224 224 225 226 225 224 223 224 225 226 225 224 224 223 221 222 224 226 225 219 212 209 213 218 241 249 248 247 246 244
212 214 214 216 217 216 216 218 219 221 225 225 224 224 224 224 225 225 224 225 225 225 226 226 227 228 227 226 224 224 224 224 224 224 224 224 223 221 220 224 226 221 217 210 198 187 222 245 247 245 242 242
216 217 217 218 219 218 216 218 220 221 223 224 223 223 223 223 224 224 225 226 226 227 227 228 228 229 228 228 227 226 226 225 225 225 225 224 224 220 215 218 223 223 220 213 199 176 165 129 222 243 229 232
216 216 216 215 216 217 216 218 219 218 220 222 223 223 223 224 225 226 226 227 227 227 228 228 228 230 230 230 229 227 228 229 230 229 227 226 224 222 221 221 221 219 218 218 214 201 172 128 213 242 193 198
215 213 212 209 208 209 210 214 217 218 219 220 223 226 227 228 228 227 228 227 228 228 228 228 229 230 231 231 230 229 229 230 230 229 229 229 226 226 228 225 219 217 217 219 218 212 210 217 215 179 158 166
214 213 212 210 210 211 211 215 219 220 221 222 224 227 228 229 229 228 228 228 228 228 228 229 230 230 231 232 232 231 230 229 230 232 233 232 230 230 230 224 218 220 219 216 216 216 218 224 225 201 178 185